[[{"header":{"parameterUnit":"m.s-1","parameterCategory":1,"la1":30.2991,"la2":30.254,"lo1":-89.0895,"lo2":-89.0444,"dy":0.0017,"dx":0.0017,"nx":28,"ny":28,"refTime":"2023-10-17T21:00:00:Z","depth":0,"parameterNumber":2,"parameterNumberName":"U-component_of_WINDS"},"data":[0,0,0,0,0,0,0,0,0,0,0,0,0,0,0,0,0,0,0,0,0,0,0,0,0,0,0,0,0,0,0,0,0,0,0,0,0,0,0,0,0,0,0,0,0,0,0,0,0,0,0,0,0,0,0,0,0,0,0.3025,0.3025,0,0.305,0.3051,0.3051,0.3079,0.3079,0.308,0.308,0.3107,0.3107,0.3107,0,0,0,0,0,0,0,0,0,0,0,0,0,0.3001,0.3001,0.3025,0.3025,0.3025,0.305,0.3051,0.3051,0.3079,0.3079,0.308,0.308,0.3107,0.3107,0.3107,0,0,0,0,0,0,0,0,0,0,0,0,0,0.3017,0.3001,0.3025,0.3042,0.3044,0.305,0.3051,0.3051,0.3079,0.3079,0.308,0.3081,0.3106,0.3107,0.3107,0.3098,0,0,0.3109,0.3109,0,0,0,0,0,0,0,0,0.3016,0.3018,0.3039,0.3041,0.3043,0.3062,0.3052,0.3067,0.3079,0.3066,0.308,0.3081,0.3091,0.3093,0.3097,0.3099,0.3101,0.3109,0.3109,0.3109,0.311,0,0,0,0,0,0,0,0.3015,0.3017,0.3035,0.304,0.3042,0.3049,0.3052,0.3055,0.3075,0.3067,0.3069,0.3071,0.3093,0.3096,0.3097,0.3101,0.3109,0.3109,0.311,0.311,0.3098,0.3097,0,0,0,0,0,0,0.3011,0.3016,0.3034,0.3036,0.3031,0.3049,0.3052,0.3055,0.3075,0.3078,0.3071,0.3073,0.3095,0.3097,0.3098,0.3089,0.3109,0.311,0.311,0.3098,0.3098,0.3097,0,0,0,0,0,0,0.3011,0.3013,0.3033,0.3026,0.303,0.3049,0.3052,0.3056,0.3059,0.3078,0.3082,0.3071,0.3095,0.3098,0.3098,0.309,0.311,0.3111,0.3099,0.3098,0.3097,0.307,0,0,0,0,0,0,0.301,0.3012,0.3009,0.3026,0.303,0.3032,0.3051,0.3056,0.306,0.3062,0.3079,0.3082,0.3096,0.3097,0.3099,0.3091,0.3111,0.31,0.3099,0.3098,0.3071,0.3068,0.3065,0,0,0,0,0,0.3009,0.3,0.3008,0.301,0.3026,0.3031,0.3033,0.305,0.3059,0.3056,0.3068,0.3082,0.3091,0.3097,0.3099,0.3091,0.3101,0.3099,0.3098,0.3073,0.3068,0.3065,0,0,0,0,0,0,0.2981,0.3003,0.3012,0.3008,0.3018,0.3036,0.3032,0.3045,0.3052,0.3054,0.3074,0.3077,0.3075,0.3083,0.309,0.3084,0.3098,0.3097,0.3078,0.3074,0.3071,0.3069,0.3111,0,0,0,0,0,0.2975,0.2977,0.2996,0.2991,0.2995,0.3013,0.3016,0.3027,0.3038,0.3042,0.3054,0.3064,0.307,0.3072,0.3078,0.3073,0.3077,0.3069,0.3066,0.3063,0.3062,0.3059,0.3056,0.3093,0.3093,0.3093,0,0,0.2961,0.2973,0.2973,0.2986,0.2994,0.2996,0.3016,0.3018,0.3019,0.3043,0.3043,0.3053,0.3065,0.3062,0.3062,0.3069,0.3052,0.3061,0.3059,0.3059,0.3057,0.3054,0.3051,0.3092,0.3092,0.3092,0,0,0.2937,0.2947,0.2944,0.2952,0.2965,0.2977,0.2976,0.2992,0.2999,0.3001,0.3018,0.3021,0.3029,0.3037,0.3043,0.3023,0.3035,0.3024,0.3007,0.3005,0.3002,0.2999,0.2992,0.2989,0.3023,0.3023,0.3023,0,0.2919,0.2923,0.2941,0.2941,0.2946,0.2967,0.2964,0.2971,0.2985,0.2988,0.2996,0.3008,0.3018,0.3017,0.3012,0.3016,0.3016,0.3022,0.3001,0.2998,0.2996,0.2989,0.2987,0.3021,0.3021,0.3022,0.3022,0,0.2899,0.2902,0.2898,0.2911,0.2915,0.2914,0.2932,0.2934,0.2946,0.2957,0.2958,0.2971,0.2979,0.298,0.2991,0.2981,0.2985,0.2997,0.3011,0.2991,0.2985,0.2982,0.3019,0.302,0.302,0.302,0,0,0.2858,0.2881,0.288,0.2886,0.2902,0.2904,0.2904,0.2912,0.2914,0.2923,0.2923,0.293,0.2941,0.2947,0.296,0.2957,0.294,0.2969,0.297,0.2963,0.293,0.2921,0.2917,0.2949,0.2949,0.2949,0.2929,0,0.2837,0.2838,0.2854,0.285,0.2853,0.2873,0.2873,0.2883,0.2893,0.2897,0.2909,0.2914,0.2928,0.2931,0.293,0.2943,0.2934,0.2944,0.295,0.295,0.2945,0.2914,0.2904,0.2885,0.2926,0.2926,0.2926,0,0.2813,0.282,0.2816,0.2833,0.2834,0.2834,0.2843,0.2846,0.2858,0.2866,0.2873,0.2887,0.2888,0.2902,0.2904,0.2911,0.2914,0.2921,0.292,0.2921,0.2936,0.2913,0.2879,0.2876,0.2922,0.2922,0.2923,0,0.2782,0.2792,0.2791,0.2796,0.2814,0.2814,0.2822,0.2834,0.2838,0.2846,0.2849,0.2857,0.2862,0.2868,0.2884,0.2893,0.2884,0.2899,0.289,0.289,0.2887,0.2887,0.2852,0.289,0.289,0.289,0.289,0,0.2757,0.2754,0.2778,0.2777,0.2774,0.2793,0.279,0.28,0.281,0.2812,0.2831,0.2832,0.2853,0.2857,0.287,0.2869,0.2871,0.2878,0.2881,0.2876,0.2875,0.2878,0.2879,0.2889,0.289,0.289,0.289,0,0.2722,0.2738,0.2739,0.2756,0.2761,0.2758,0.2774,0.2774,0.2786,0.2788,0.2789,0.2808,0.2813,0.283,0.284,0.2849,0.2844,0.2851,0.284,0.2842,0.2832,0.2832,0.2797,0.2794,0.2834,0.2834,0.2833,0,0.2705,0.2703,0.272,0.2723,0.273,0.2734,0.2738,0.2756,0.276,0.2774,0.2772,0.2779,0.2785,0.2793,0.2808,0.2815,0.2822,0.2809,0.2823,0.2818,0.2821,0.2821,0.2821,0.2806,0.2805,0.2805,0.2805,0,0.2671,0.2679,0.2685,0.2693,0.2697,0.2705,0.2713,0.2714,0.2735,0.2738,0.2744,0.2749,0.2759,0.2765,0.2775,0.2784,0.2797,0.28,0.2799,0.2793,0.2786,0.2789,0.2831,0.2801,0.2801,0.2801,0.2802,0.2802,0.2644,0.2644,0.2656,0.2661,0.267,0.2677,0.2678,0.269,0.2695,0.2704,0.2715,0.272,0.2732,0.2747,0.2754,0.2758,0.2765,0.2763,0.2762,0.2761,0.2759,0.2786,0.276,0.276,0.276,0.276,0.2761,0,0.2612,0.2621,0.2626,0.2637,0.2641,0.2654,0.2664,0.2666,0.267,0.268,0.2686,0.2693,0.2699,0.2714,0.2722,0.2722,0.2729,0.2724,0.2724,0.2725,0.2752,0.2752,0.2718,0.2718,0.2718,0.2718,0.2718,0.2718,0.2595,0.2594,0.2604,0.2607,0.2617,0.2621,0.2625,0.2633,0.2641,0.2647,0.2652,0.2662,0.2675,0.2684,0.269,0.2695,0.2697,0.2689,0.2695,0.272,0.2724,0.2727,0.2728,0.269,0.269,0.2669,0.2669,0.2668]},{"header":{"parameterUnit":"m.s-1","parameterCategory":1,"la1":30.2991,"la2":30.254,"lo1":-89.0895,"lo2":-89.0444,"dy":0.0017,"dx":0.0017,"nx":28,"ny":28,"refTime":"2023-10-17T21:00:00:Z","depth":0,"parameterNumber":3,"parameterNumberName":"V-component_of_WINDS"},"data":[0,0,0,0,0,0,0,0,0,0,0,0,0,0,0,0,0,0,0,0,0,0,0,0,0,0,0,0,0,0,0,0,0,0,0,0,0,0,0,0,0,0,0,0,0,0,0,0,0,0,0,0,0,0,0,0,0,0,0.4928,0.4928,0,0.4934,0.4934,0.4934,0.4932,0.4932,0.4932,0.4932,0.4937,0.4937,0.4937,0,0,0,0,0,0,0,0,0,0,0,0,0,0.4913,0.4913,0.4928,0.4928,0.4928,0.4934,0.4934,0.4934,0.4932,0.4932,0.4932,0.4932,0.4937,0.4937,0.4937,0,0,0,0,0,0,0,0,0,0,0,0,0,0.4919,0.4913,0.4928,0.4928,0.4928,0.4934,0.4934,0.4934,0.4932,0.4932,0.4932,0.4932,0.4937,0.4937,0.4938,0.4943,0,0,0.4939,0.4939,0,0,0,0,0,0,0,0,0.4919,0.492,0.4928,0.4928,0.4928,0.4932,0.493,0.4937,0.4932,0.4931,0.4932,0.4932,0.4935,0.4936,0.4937,0.4943,0.4944,0.4939,0.4939,0.4939,0.4939,0,0,0,0,0,0,0,0.4918,0.4919,0.493,0.4928,0.4928,0.4927,0.4927,0.4932,0.4934,0.4931,0.4931,0.4931,0.4935,0.4937,0.4937,0.4944,0.4939,0.4939,0.4939,0.4939,0.4953,0.4953,0,0,0,0,0,0,0.4918,0.4919,0.493,0.493,0.4923,0.4927,0.4928,0.4931,0.4934,0.4934,0.4932,0.4931,0.4936,0.4937,0.4938,0.4943,0.4939,0.4939,0.494,0.4952,0.4953,0.4953,0,0,0,0,0,0,0.4918,0.4919,0.493,0.4925,0.4926,0.4928,0.4931,0.4931,0.4933,0.4934,0.4935,0.4933,0.4936,0.4937,0.4941,0.4943,0.494,0.494,0.4952,0.4953,0.4953,0.4955,0,0,0,0,0,0,0.4917,0.4919,0.4922,0.4925,0.4926,0.4934,0.4931,0.4931,0.4933,0.4933,0.4936,0.4936,0.4936,0.4941,0.4942,0.4944,0.494,0.4952,0.4952,0.4953,0.4955,0.4955,0.4956,0,0,0,0,0,0.4917,0.4922,0.4922,0.4923,0.493,0.4934,0.4935,0.4935,0.4934,0.4936,0.4937,0.4936,0.4943,0.4941,0.4942,0.4945,0.4952,0.4952,0.4953,0.4955,0.4955,0.4956,0,0,0,0,0,0,0.492,0.4923,0.4922,0.4929,0.4931,0.4934,0.4937,0.4936,0.4939,0.4939,0.4939,0.4939,0.4943,0.4944,0.4942,0.4949,0.4947,0.4948,0.4948,0.4949,0.4949,0.4949,0.494,0,0,0,0,0,0.4921,0.4925,0.4927,0.4933,0.4934,0.4935,0.4937,0.4937,0.494,0.494,0.4942,0.4943,0.4946,0.4947,0.495,0.4955,0.4955,0.4957,0.4957,0.4958,0.4958,0.4959,0.496,0.4954,0.4954,0.4954,0,0,0.4925,0.4927,0.4929,0.4934,0.4936,0.4939,0.4936,0.494,0.4942,0.4941,0.4945,0.4946,0.4947,0.4952,0.4954,0.4953,0.4959,0.4958,0.4958,0.4958,0.496,0.496,0.4961,0.4954,0.4954,0.4954,0,0,0.4932,0.4934,0.4939,0.494,0.4942,0.4943,0.4944,0.4946,0.4946,0.495,0.4949,0.4951,0.4956,0.4956,0.4958,0.4963,0.4962,0.4964,0.4966,0.4967,0.4968,0.4968,0.4969,0.497,0.4964,0.4964,0.4964,0,0.4936,0.4941,0.4941,0.4944,0.4946,0.4945,0.4948,0.4949,0.4952,0.4953,0.4952,0.4957,0.4958,0.4961,0.4963,0.4964,0.4964,0.4963,0.4968,0.4968,0.4968,0.4969,0.497,0.4964,0.4964,0.4964,0.4964,0,0.4944,0.4948,0.4951,0.4953,0.4955,0.4959,0.4958,0.496,0.4959,0.496,0.4963,0.4964,0.4966,0.4967,0.4966,0.497,0.4969,0.4968,0.4966,0.4969,0.497,0.497,0.4964,0.4964,0.4964,0.4964,0,0,0.4955,0.4956,0.4957,0.4957,0.4959,0.4961,0.4964,0.4966,0.4967,0.4968,0.497,0.4973,0.4972,0.4973,0.4972,0.4973,0.4976,0.4972,0.4972,0.4972,0.4979,0.4979,0.498,0.4975,0.4975,0.4975,0.4978,0,0.4961,0.4966,0.4966,0.4971,0.4973,0.4971,0.4973,0.4974,0.4973,0.4975,0.4974,0.4976,0.4975,0.4975,0.4976,0.4976,0.4977,0.4975,0.4976,0.4976,0.4975,0.498,0.4981,0.4984,0.4979,0.4979,0.4979,0,0.497,0.4971,0.4976,0.4976,0.4977,0.4979,0.498,0.4981,0.4981,0.4981,0.4981,0.498,0.4982,0.498,0.4981,0.498,0.498,0.498,0.498,0.498,0.4977,0.498,0.4985,0.4985,0.4979,0.4979,0.4979,0,0.4976,0.4979,0.4982,0.4982,0.4982,0.4983,0.4983,0.4984,0.4984,0.4985,0.4985,0.4985,0.4986,0.4986,0.4984,0.4983,0.4986,0.4984,0.4985,0.4985,0.4986,0.4986,0.499,0.4986,0.4986,0.4986,0.4986,0,0.4983,0.4985,0.4984,0.4986,0.4988,0.4987,0.4989,0.4989,0.4989,0.499,0.4988,0.4989,0.4987,0.4987,0.4986,0.4987,0.4987,0.4987,0.4986,0.4987,0.4987,0.4987,0.4986,0.4986,0.4986,0.4986,0.4986,0,0.499,0.4989,0.4992,0.4991,0.4991,0.4993,0.4992,0.4993,0.4992,0.4993,0.4993,0.4992,0.4992,0.4991,0.4991,0.499,0.4991,0.4991,0.4991,0.4991,0.4992,0.4991,0.4996,0.4997,0.4993,0.4993,0.4993,0,0.4994,0.4996,0.4995,0.4996,0.4996,0.4997,0.4997,0.4995,0.4996,0.4995,0.4996,0.4996,0.4996,0.4996,0.4995,0.4995,0.4994,0.4995,0.4994,0.4994,0.4993,0.4993,0.4992,0.4996,0.4996,0.4996,0.4996,0,0.5002,0.5001,0.5001,0.5001,0.5002,0.5002,0.5002,0.5002,0.5,0.5,0.5001,0.5,0.5,0.5,0.4999,0.4998,0.4996,0.4996,0.4996,0.4997,0.4997,0.4996,0.4992,0.4996,0.4996,0.4996,0.4996,0.4996,0.5007,0.5008,0.5007,0.5007,0.5007,0.5007,0.5007,0.5006,0.5006,0.5006,0.5005,0.5005,0.5003,0.5002,0.5001,0.5001,0.5,0.5,0.5,0.5,0.5,0.4997,0.5001,0.5001,0.5001,0.5001,0.5001,0,0.5013,0.5012,0.5013,0.5012,0.5012,0.5011,0.501,0.501,0.501,0.5009,0.5009,0.5008,0.5007,0.5006,0.5005,0.5004,0.5004,0.5004,0.5004,0.5004,0.5001,0.5001,0.5005,0.5005,0.5005,0.5005,0.5005,0.5005,0.5017,0.5018,0.5017,0.5017,0.5016,0.5016,0.5016,0.5015,0.5014,0.5014,0.5013,0.5012,0.501,0.5009,0.5008,0.5007,0.5007,0.5007,0.5007,0.5004,0.5004,0.5004,0.5003,0.5008,0.5008,0.5009,0.5009,0.5009]}]]